#timestamp,LO_Frequency,Hit,StdDev 
1628460015.6,286046998.2,N
1628460035.4,286047000.7,N
1628460055.3,286047001.0,N
1628460075.1,286046998.8,N
1628460095.8,286046998.9,N
1628460115.7,286047000.1,N
1628460135.5,286046999.9,N
1628460155.4,286047002.8,N
1628460175.2,286047001.1,N
1628460195.0,286047000.3,N
1628460195.9,286047000.3,N
1628460215.8,286046998.8,N
1628460235.6,286046997.0,N
1628460255.4,286046997.7,N
1628460275.3,286046996.0,N
1628460295.1,286046993.3,Y
1628460315.9,286046994.3,P
1628460335.7,286046994.1,N
1628460355.5,286046994.4,N
1628460375.4,286046994.0,N
1628460395.2,286046994.7,N
1628460415.1,286046991.7,Y
1628460416.0,286046991.7,P
1628460435.8,286046997.7,N
1628460455.6,286046997.9,N
1628460475.5,286046995.6,N
1628460495.3,286046993.3,Y
1628460515.1,286046999.2,P
1628460535.9,286046996.6,N
1628460555.7,286046999.2,N
1628460575.5,286046998.3,N
1628460595.4,286046998.7,N
1628460615.2,286047001.0,N
1628460635.1,286047000.8,N
1628460636.0,286047000.8,N
1628460655.8,286046999.0,N
1628460675.6,286046998.8,N
1628460695.5,286046999.1,N
1628460715.3,286046998.8,N
1628460735.1,286046998.7,N
1628460755.9,286046999.5,N
1628460775.7,286046997.0,N
1628460795.6,286046996.5,N
1628460815.4,286046996.7,N
1628460835.2,286046997.4,N
1628460855.1,286046996.6,N
1628460856.0,286046996.6,N
1628460875.8,286046998.8,N
1628460895.6,286046999.5,N
1628460915.5,286046996.9,N
1628460935.3,286046999.2,N
1628460955.2,286046997.1,N
1628460975.9,286046995.6,Y
1628460995.7,286046994.9,P
1628461015.6,286046995.3,N
1628461035.4,286046995.6,N
1628461055.3,286046995.3,Y
1628461075.1,286047001.0,P
1628461095.8,286047000.4,N
1628461115.7,286047000.3,N
1628461135.5,286047001.1,N
1628461155.4,286046999.3,N
1628461175.2,286046998.6,N
1628461195.0,286046999.3,N
1628461195.9,286046999.3,N
1628461215.8,286046997.2,N
1628461235.6,286046997.2,N
1628461255.4,286046996.6,N
1628461275.3,286046997.0,N
1628461295.1,286046998.7,N
1628461315.8,286046998.4,N
1628461335.7,286046999.5,N
1628461355.5,286046996.6,N
1628461375.4,286046995.4,N
1628461395.2,286046997.2,N
1628461415.0,286046997.1,N
1628461415.9,286046997.1,N
1628461435.8,286046999.4,N
1628461455.6,286046999.3,N
1628461475.4,286046999.4,N
1628461495.3,286046998.8,N
1628461515.1,286046998.9,N
1628461535.9,286046998.7,N
1628461555.7,286046998.5,N
1628461575.5,286046999.5,N
1628461625.4,286047000.9,E
1628461635.3,286047001.1,N
1628461655.2,286046999.0,P
1628461675.9,286046999.1,N
1628461695.7,286046997.0,Y
1628461715.6,286046999.0,P
1628461735.4,286047001.2,P
1628461755.3,286047000.4,N
1628461775.1,286047000.1,N
1628461776.0,286047000.1,N
1628461795.8,286047000.2,N
1628461815.7,286046998.2,N
1628461835.5,286046998.5,N
1628461855.3,286047000.4,N
1628461875.2,286047002.3,N
1628461895.0,286046999.9,N
1628461895.9,286046999.9,N
1628461915.8,286047000.1,N
1628461935.6,286047000.9,N
1628461955.4,286047000.2,N
1628461975.3,286047002.0,N
1628461995.1,286047001.7,N
1628462015.8,286047001.6,N
1628462035.7,286047001.6,N
1628462055.5,286047004.1,Y
1628462075.4,286047004.0,P
1628462095.2,286047003.1,N
1628462115.0,286047003.1,N
1628462115.9,286047003.1,N
1628462135.8,286047005.2,Y
1628462155.6,286047005.9,P
1628462175.4,286047006.4,P
1628462195.3,286047008.4,P
1628462215.1,286047009.9,Y
1628462235.9,286047005.0,P
1628462255.7,286047004.7,P
1628462275.5,286047007.0,P
1628462295.4,286047008.6,Y
1628462315.2,286047005.5,P
1628462335.1,286047005.0,P
1628462336.0,286047005.0,P
1628462355.8,286047006.2,Y
1628462375.6,286047001.8,P
1628462395.5,286047001.6,N
1628462415.3,286047003.7,N
1628462435.1,286047003.8,N
1628462455.9,286047002.9,N
1628462475.7,286047007.2,Y
1628462495.6,286047005.9,P
1628462515.4,286047003.3,N
1628462535.2,286047005.6,P
1628462555.1,286047005.1,Y
1628462556.0,286047005.1,P
1628462575.8,286047000.7,N
1628462595.7,286047000.5,N
1628462615.5,286047002.7,N
1628462635.3,286047001.3,N
1628462655.2,286047001.6,N
1628462675.0,286047004.1,N
1628462675.9,286047004.1,N
1628462695.8,286047005.3,Y
1628462715.6,286047003.9,P
1628462735.4,286047005.6,P
1628462755.3,286047007.5,P
1628462775.1,286047004.6,N
1628462795.8,286047007.4,Y
1628462815.7,286047001.8,P
1628462835.5,286046999.7,N
1628462855.4,286047000.1,N
1628462875.2,286046999.9,N
1628462895.0,286047002.0,N
1628462895.9,286047002.0,N
1628462915.8,286047002.1,N
1628462935.6,286047002.8,N
1628462955.4,286047002.5,N
1628462975.3,286046999.8,N
1628462995.1,286047002.1,N
1628463015.9,286047003.9,N
1628463035.7,286047001.9,N
1628463055.5,286047001.3,N
1628463075.4,286047004.2,N
1628463095.2,286047001.7,N
1628463115.0,286047002.2,N
1628463115.9,286047002.2,N
1628463135.8,286047004.0,N
1628463155.6,286047002.1,N
1628463175.5,286046999.7,N
1628463195.3,286047000.0,N
1628463215.1,286047002.4,N
1628463235.9,286047003.2,N
1628463255.7,286047003.9,N
1628463275.5,286047003.4,N
1628463295.4,286047004.8,Y
1628463315.2,286047005.3,P
1628463335.1,286047005.0,P
1628463336.0,286047005.0,P
1628463355.8,286047007.6,Y
1628463375.6,286047002.1,P
1628463395.5,286047002.6,N
1628463415.3,286047000.2,N
1628463435.1,286047002.8,N
1628463455.9,286047002.3,N
1628463475.7,286047003.2,N
1628463495.6,286047003.9,Y
1628463515.4,286047002.5,P
1628463535.2,286047001.3,P
1628463555.1,286047004.1,P
1628463556.0,286047004.1,Y
1628463575.8,286047001.6,P
1628463595.7,286047001.8,P
